#timestamp,LO_Frequency,Hit,StdDev 
1705993215.8,286047000.7,N
1705993235.6,286046998.8,N
1705993255.4,286046996.5,N
1705993275.3,286046998.4,N
1705993295.1,286046999.4,N
1705993315.8,286046996.8,N
1705993335.7,286046996.6,N
1705993355.5,286046997.7,N
1705993375.4,286046996.9,N
1705993395.2,286046995.4,N
1705993415.0,286046997.5,N
1705993415.9,286046997.5,N
1705993435.8,286046997.3,N
1705993455.6,286046997.5,N
1705993475.4,286046997.1,N
1705993495.3,286046995.3,N
1705993515.1,286046997.9,N
1705993535.9,286046996.6,N
1705993555.7,286046997.5,N
1705993575.5,286046995.6,N
1705993595.4,286046997.9,N
1705993615.2,286046998.2,N
1705993635.1,286046999.3,N
1705993636.0,286046999.3,N
1705993655.8,286046999.0,N
1705993675.6,286046998.1,N
1705993695.5,286047001.1,N
1705993715.3,286046998.5,N
1705993735.1,286046996.9,N
1705993755.9,286046999.6,N
1705993775.7,286046996.7,N
1705993795.6,286046997.4,N
1705993815.4,286046997.4,N
1705993835.2,286046997.3,N
1705993855.1,286046997.6,N
1705993856.0,286046997.6,N
1705993875.8,286046997.6,N
1705993895.7,286046994.9,Y
1705993915.5,286046998.9,P
1705993935.3,286047001.2,N
1705993955.2,286046998.6,N
1705993975.9,286046996.6,N
1705993995.7,286046997.3,N
1705994015.6,286046998.0,N
1705994035.4,286046997.9,N
1705994055.2,286046997.9,N
1705994075.1,286046996.9,N
1705994076.0,286046996.9,N
1705994095.8,286046997.0,N
1705994115.7,286046999.1,N
1705994135.5,286046997.2,N
1705994155.3,286046997.2,N
1705994175.2,286047011.9,Y
1705994195.0,286047000.0,P
1705994195.9,286047000.0,N
1705994215.8,286047000.9,N
1705994235.6,286047002.7,N
1705994255.4,286047001.6,N
1705994275.3,286047002.3,N
1705994295.1,286047000.4,N
1705994315.8,286046999.9,N
1705994335.7,286047000.6,N
1705994355.5,286047002.8,N
1705994375.4,286047002.0,N
1705994395.2,286046999.7,N
1705994415.0,286047000.7,N
1705994415.9,286047000.7,N
1705994435.8,286047002.7,N
1705994455.6,286047001.6,N
1705994475.4,286047002.1,N
1705994495.3,286047000.7,N
1705994515.1,286047000.3,N
1705994535.9,286046999.9,N
1705994555.7,286047000.7,N
1705994575.5,286047001.2,N
1705994595.4,286047000.8,N
1705994615.2,286047001.1,N
1705994635.0,286047000.3,N
1705994635.9,286047000.3,N
1705994655.8,286047000.6,N
1705994675.6,286047000.2,N
1705994695.5,286047001.0,N
1705994715.3,286047001.1,N
1705994735.1,286047000.8,N
1705994755.9,286046998.4,N
1705994775.7,286046998.9,N
1705994795.5,286046998.9,N
1705994815.4,286046998.6,N
1705994835.2,286047000.3,N
1705994855.1,286046998.7,N
1705994856.0,286046998.7,N
1705994875.8,286046998.3,N
1705994895.6,286046998.7,N
1705994915.5,286046996.5,Y
1705994935.3,286046998.4,P
1705994955.1,286046998.5,N
1705994975.9,286046996.5,P
1705994995.7,286046998.6,N
1705995015.6,286046996.9,N
1705995035.4,286046997.1,N
1705995055.2,286046997.5,N
1705995075.1,286046999.6,N
1705995076.0,286046999.6,N
1705995095.8,286046996.9,N
1705995115.7,286046912.2,Y
1705995135.5,286046913.5,P
1705995185.4,286046913.4,E
1705995195.3,286046953.4,N
1705995215.1,286047001.5,P
1705995235.9,286047002.8,N
1705995255.7,286047000.5,N
1705995275.5,286046998.1,N
1705995295.4,286047000.5,N
1705995315.2,286046999.8,N
1705995335.0,286047002.1,N
1705995335.9,286047002.1,N
1705995355.8,286047002.3,N
1705995375.6,286047000.1,N
1705995395.5,286047002.4,N
1705995415.3,286047000.6,N
1705995435.1,286047000.9,N
1705995455.9,286047000.1,N
1705995475.7,286047002.0,N
1705995495.5,286047002.2,N
1705995515.4,286046999.7,N
1705995535.2,286047002.8,N
1705995555.1,286047002.0,N
1705995556.0,286047002.0,N
1705995575.8,286047006.0,N
1705995595.6,286047004.1,N
1705995615.5,286047003.9,N
1705995635.3,286047003.8,N
1705995655.1,286047001.7,N
1705995675.9,286047005.4,N
1705995695.7,286047004.1,N
1705995715.6,286047004.2,N
1705995735.4,286047000.2,N
1705995755.2,286047000.6,N
1705995775.1,286047002.8,N
1705995776.0,286047002.8,N
1705995795.8,286047001.9,N
1705995815.7,286047002.8,N
1705995835.5,286047001.7,N
1705995855.3,286047002.8,N
1705995875.2,286047003.9,N
1705995895.9,286047001.9,N
1705995915.7,286047000.7,N
1705995935.6,286047005.7,Y
1705995955.4,286047002.3,P
1705995975.3,286046999.8,P
1705995995.1,286047001.6,N
1705995996.0,286047001.6,N
1705996015.8,286047001.9,N
1705996035.7,286047001.7,N
1705996055.5,286047001.9,N
1705996075.4,286047002.3,Y
1705996095.2,286047000.5,P
1705996115.0,286046999.8,N
1705996115.9,286046999.8,N
1705996135.8,286047002.1,N
1705996155.6,286047002.8,N
1705996175.4,286047001.4,N
1705996195.3,286047002.4,N
1705996215.1,286047002.8,N
1705996235.9,286047002.7,N
1705996255.7,286047000.0,N
1705996275.5,286046999.8,N
1705996295.4,286047002.2,N
1705996315.2,286047003.9,Y
1705996335.1,286046999.4,P
1705996336.0,286046999.4,N
1705996355.8,286046998.7,N
1705996375.6,286046998.9,N
1705996395.5,286046996.5,Y
1705996415.3,286046996.5,P
1705996435.1,286046998.5,N
1705996455.9,286047002.8,N
1705996475.7,286047000.1,N
1705996495.6,286047000.8,N
1705996515.4,286047000.5,N
1705996535.2,286046998.6,N
1705996555.1,286047000.2,N
1705996556.0,286047000.2,N
1705996575.8,286047001.1,N
1705996595.6,286047000.5,N
1705996615.5,286047001.0,N
1705996635.3,286047001.2,N
1705996655.2,286046996.7,N
1705996675.9,286046998.7,N
1705996695.7,286046998.9,N
1705996715.6,286046998.6,N
1705996735.4,286047000.7,N
1705996755.2,286046999.0,N
1705996775.1,286046999.3,N
1705996776.0,286046999.3,N
1705996795.8,286046999.2,N
